SCP
12 13 13 11 8 6 5 6 7 8 7 5 4 3 3 3 3 3 4 4 3 3 3 3 3 3 3 3 3 3 3 3 3 2 2 3 3 3 3 4 4 4 4
10 12 14 12 9 7 6 7 9 9 7 5 4 3 3 3 3 3 3 3 3 3 3 3 2 2 3 3 3 3 3 3 3 2 2 3 3 3 4 4 4 4 4
8 10 13 14 12 9 8 9 10 10 8 5 3 3 3 3 3 3 2 2 2 3 3 3 3 3 3 4 4 4 4 4 4 4 4 4 4 4 5 5 5 5 4
7 9 12 15 15 12 10 11 12 11 8 5 4 3 3 2 3 3 3 3 3 3 3 4 4 4 4 5 5 5 6 6 7 6 6 6 5 5 6 6 6 6 5
8 9 12 15 16 13 12 13 13 11 8 6 4 3 2 2 2 3 3 3 4 4 4 4 4 4 5 6 6 7 8 9 10 9 9 8 7 7 7 7 6 6 5
9 9 11 14 15 13 13 14 14 11 8 6 4 4 3 3 2 2 3 4 4 4 5 5 5 5 5 6 7 7 7 9 10 11 11 10 9 8 7 6 5 5 5
10 10 11 12 13 13 13 14 13 11 8 6 5 5 5 3 2 2 3 4 4 5 5 6 7 6 7 8 8 8 8 8 9 10 11 9 8 7 5 5 5 5 5
11 10 11 11 12 13 14 13 12 11 9 7 6 5 5 4 2 2 2 4 5 5 6 7 8 8 9 10 11 11 11 9 7 7 7 6 5 5 4 4 4 4 3
10 9 9 10 11 15 16 14 12 11 9 7 6 5 4 3 3 2 3 4 5 5 6 7 7 8 8 9 11 13 13 10 5 4 3 3 2 2 3 3 3 3 2
9 9 9 9 11 15 16 14 12 11 9 7 6 6 5 4 3 3 3 5 6 7 7 8 6 6 6 7 9 12 11 8 5 3 2 1 1 1 2 3 3 3 2
9 10 9 10 11 12 13 11 10 10 9 7 6 6 5 5 4 3 3 4 6 7 8 8 6 4 3 3 5 7 7 5 5 4 3 2 2 1 2 2 2 3 3
10 10 9 9 9 9 9 9 8 8 8 7 6 6 7 7 5 4 3 3 4 6 6 6 5 3 1 1 1 2 3 4 5 5 4 3 2 2 2 2 3 3 3
10 9 8 8 8 8 8 8 7 7 6 6 6 6 7 8 6 4 3 2 2 3 4 4 4 2 1 1 1 1 2 4 5 5 5 4 3 2 2 2 3 3 3
9 8 8 8 9 9 9 7 6 6 6 6 5 6 7 7 6 5 4 3 2 2 3 3 3 2 2 2 2 2 3 5 5 5 4 4 3 3 3 3 3 2 2
7 7 8 8 9 9 8 7 5 5 6 5 4 5 6 5 4 4 5 5 4 3 4 4 3 3 3 3 4 4 5 5 5 5 4 4 4 3 3 3 3 3 2
6 7 7 8 8 8 7 6 4 4 3 3 3 3 4 4 4 4 4 5 4 4 4 5 4 4 3 4 4 5 6 6 6 6 5 5 4 3 4 4 4 4 3
6 6 6 6 6 6 6 5 4 3 3 2 2 2 2 3 3 3 2 2 2 3 4 5 5 4 3 3 3 4 5 7 8 8 7 6 5 4 4 4 5 5 5
5 6 6 6 6 6 5 5 4 4 3 3 3 2 1 1 1 1 1 1 2 2 3 5 5 4 4 3 3 3 4 5 7 9 9 9 8 7 6 5 6 6 6
5 5 5 5 5 5 5 4 4 4 4 5 5 4 2 1 1 1 1 1 2 3 3 4 4 4 3 3 3 3 3 3 5 7 9 11 11 9 8 7 7 6 6
4 4 4 4 4 4 4 3 3 3 4 5 7 7 4 2 2 2 2 2 3 3 4 3 3 3 3 3 3 3 2 2 2 4 7 10 11 11 10 9 8 7 7
3 3 3 3 3 3 3 3 3 2 3 4 7 8 6 4 3 3 3 3 3 3 4 4 3 3 2 2 2 2 3 2 2 3 4 6 8 9 10 10 9 8 8
3 3 2 2 2 2 2 2 2 2 2 3 5 7 6 4 4 4 4 4 4 4 4 4 3 3 2 2 2 2 3 3 2 2 2 3 4 5 7 8 8 8 8
4 3 3 3 2 2 2 2 2 1 1 2 4 6 7 5 5 4 4 4 4 4 4 4 3 2 1 2 2 2 3 3 2 2 1 2 2 2 3 4 5 5 5
3 3 3 3 2 1 1 1 1 1 1 1 3 5 7 7 5 4 4 5 5 4 3 3 2 2 1 1 2 2 3 2 2 2 1 1 1 1 1 2 2 2 2
3 3 3 2 1 1 1 1 2 2 2 1 1 3 6 8 7 5 5 5 4 3 3 2 2 2 1 1 2 2 2 2 1 1 1 1 1 1 1 1 1 1 1
3 3 2 1 1 1 1 2 2 3 2 1 1 2 5 8 8 6 5 4 4 3 3 2 2 2 2 1 2 2 1 1 1 1 1 2 1 1 1 1 1 1 1
Wind_Speed
8 6 6 6 5 5 3 3 2 2 2 2 2 3 3 4 4 3 4 4 4 3 4 4 4 4 3 3 2 2 2 2 2 2 1 2 3 3 4 4 4 5 5
8 7 6 5 5 5 4 3 3 2 2 2 2 2 3 4 4 4 5 4 4 4 4 4 4 4 4 3 3 3 2 2 2 3 2 2 3 4 4 5 4 5 4
8 7 6 6 6 5 4 4 3 3 3 3 2 3 3 3 3 3 3 3 3 4 4 4 4 4 4 3 4 3 2 3 3 3 3 2 3 3 3 4 3 2 3
7 7 7 6 5 4 4 4 4 4 3 3 3 3 3 3 3 3 4 4 4 4 4 4 4 4 4 4 4 3 3 3 3 3 3 3 3 3 3 3 2 2 3
6 6 6 5 5 4 4 4 4 4 4 3 3 3 4 4 4 4 4 4 4 4 4 3 3 3 3 2 3 2 2 3 3 3 4 3 3 3 3 3 3 2 2
5 5 5 5 5 5 4 4 4 4 4 3 3 3 4 4 3 4 4 3 3 4 4 3 3 4 3 3 3 2 2 3 3 3 3 3 3 3 2 3 2 2 3
3 4 4 4 4 4 4 4 4 4 3 3 3 4 4 3 3 3 3 3 4 4 4 3 4 3 3 3 3 4 3 4 5 4 4 4 3 2 3 3 3 3 3
3 3 3 3 3 3 3 3 3 3 3 3 4 4 3 3 3 3 3 4 4 4 4 3 3 2 2 2 2 3 3 3 4 4 3 3 2 1 2 3 4 4 3
2 2 3 3 3 2 2 2 2 2 3 3 3 3 3 3 3 3 3 3 4 5 5 4 4 3 3 3 3 3 4 3 2 2 3 3 2 3 3 2 3 3 3
0 1 1 1 2 3 2 2 2 2 3 3 3 3 3 3 4 4 4 4 4 4 4 3 4 4 4 4 4 5 5 5 3 3 3 4 5 5 6 5 4 3 2
1 0 0 1 2 2 2 1 1 2 2 3 4 3 3 3 3 4 5 4 4 4 3 2 2 3 4 5 5 4 5 4 3 4 4 4 4 4 4 5 4 4 3
1 0 0 1 2 1 1 1 2 2 2 3 3 4 3 2 2 3 4 5 5 4 3 2 1 3 4 5 4 5 5 5 4 4 3 3 3 4 3 4 4 4 4
2 2 2 2 2 1 2 2 2 2 2 3 3 3 2 1 2 3 4 4 5 3 2 1 2 3 3 4 6 6 5 4 3 3 3 3 3 3 2 3 3 3 4
2 2 2 2 2 1 1 2 2 2 2 2 2 2 2 1 0 0 1 2 2 2 2 1 1 2 3 4 3 4 4 3 3 3 3 3 2 2 2 2 3 3 3
2 2 2 2 2 2 2 2 2 1 1 2 2 2 2 2 1 1 1 2 2 1 1 2 2 2 2 3 3 3 3 3 3 3 3 2 2 2 2 2 3 3 3
3 3 2 2 2 2 2 1 1 1 2 2 2 1 1 0 1 1 2 2 2 2 1 2 3 3 3 3 3 3 3 2 2 2 2 2 2 2 2 2 2 2 3
3 3 3 3 2 3 2 2 1 1 1 1 1 1 2 1 1 1 1 1 1 2 2 3 3 3 3 3 3 3 2 2 2 2 2 2 2 2 2 2 1 2 2
4 4 3 2 2 2 3 3 2 2 2 1 2 3 3 3 3 3 2 1 1 2 2 3 3 2 2 2 2 1 1 1 1 2 2 2 2 2 2 2 2 2 3
4 3 3 2 2 2 2 3 3 2 1 1 1 1 2 3 3 3 3 2 2 2 3 3 2 1 1 1 0 0 0 0 1 1 1 2 2 2 2 2 2 3 3
3 3 3 3 2 2 2 2 2 2 2 1 1 1 1 2 1 1 2 3 3 3 2 2 1 1 0 0 0 1 0 0 1 1 1 1 2 2 3 3 3 3 3
3 2 2 3 2 2 2 2 2 2 1 1 1 1 2 3 2 2 2 3 2 2 1 1 1 1 1 1 1 1 1 1 1 1 1 1 1 2 3 3 3 3 2
3 3 2 2 2 2 2 2 2 2 2 2 1 1 3 3 2 1 1 1 1 1 1 1 1 1 0 0 0 1 1 1 1 1 1 2 2 2 2 2 3 2 2
3 2 2 2 1 1 1 1 2 2 2 2 1 0 1 1 1 1 0 0 0 0 0 0 1 0 0 0 0 0 0 1 1 2 2 2 2 2 2 3 3 3 3
3 2 2 2 2 1 1 2 2 2 2 2 2 1 1 1 1 1 1 1 1 0 1 0 0 1 1 1 1 1 1 2 2 2 2 2 2 2 2 3 2 3 3
3 2 2 2 2 2 2 2 2 2 2 2 2 2 1 1 1 0 1 1 1 0 0 0 1 0 1 1 2 2 2 2 2 3 3 2 2 3 3 3 2 2 2
3 3 3 2 2 2 2 2 2 2 1 1 1 1 1 1 1 1 1 1 1 1 1 0 1 1 1 2 3 3 2 1 2 3 3 2 2 3 3 2 3 3 2
Wind_Direction
175 177 180 180 185 185 194 203 195 193 186 202 214 220 222 229 236 236 241 241 239 249 253 249 245 252 251 242 237 230 224 209 222 230 190 156 160 168 163 186 179 178 179
172 172 174 175 178 187 194 199 193 188 195 207 211 227 238 235 231 235 243 246 239 243 251 254 250 243 238 247 244 235 227 215 207 226 220 191 195 188 181 197 203 191 179
169 168 169 182 186 191 192 193 194 193 202 218 217 230 245 245 238 239 243 250 249 249 246 248 248 243 240 241 240 238 230 226 204 215 227 211 204 196 189 209 208 191 196
168 170 176 183 184 186 186 190 195 199 204 214 226 232 240 246 248 253 247 247 246 250 251 248 248 244 240 238 237 231 234 235 222 221 230 220 198 191 189 202 200 204 212
168 174 176 174 173 180 189 196 198 203 211 212 223 235 240 242 243 249 251 244 245 249 249 240 234 231 234 236 243 238 233 234 233 229 228 223 207 190 203 203 205 201 213
167 172 169 174 180 189 195 200 203 205 213 215 220 231 242 247 243 236 244 252 251 251 246 236 229 218 206 200 202 215 226 233 242 245 241 225 214 203 200 208 203 206 222
157 163 163 176 187 192 201 205 212 216 218 227 228 229 237 242 230 232 244 247 251 251 248 242 247 236 204 197 198 205 219 232 234 245 253 249 235 213 204 218 222 223 229
159 163 162 180 195 196 197 210 222 227 228 235 236 233 235 243 227 228 247 246 251 251 246 244 244 246 235 209 218 232 231 236 237 232 241 263 264 241 214 221 226 230 239
170 176 175 182 191 196 202 219 231 234 241 242 241 239 232 235 235 233 234 251 247 249 246 242 228 219 204 203 217 236 241 239 237 204 202 214 224 230 221 224 229 224 228
219 214 196 191 199 205 199 214 229 237 247 253 245 243 231 221 222 224 229 251 252 252 251 243 227 202 188 201 224 229 238 238 225 223 226 229 229 226 220 217 226 228 236
21 347 203 180 211 211 192 211 230 244 251 255 249 246 237 224 215 216 222 246 257 259 255 241 212 179 199 219 229 237 237 242 233 229 227 224 223 218 213 212 213 216 224
32 352 342 277 260 239 211 243 243 238 246 257 259 253 237 209 207 228 235 241 260 264 258 245 203 191 213 225 227 238 249 246 243 238 235 227 220 220 215 212 211 212 216
352 346 341 297 268 261 242 253 251 245 248 257 257 257 254 224 192 211 236 251 255 263 283 283 218 206 221 229 231 236 240 235 235 239 238 238 230 220 211 208 211 217 229
331 323 303 284 269 274 260 260 259 258 263 275 272 268 278 280 265 215 243 253 275 266 271 295 240 237 258 256 234 230 228 228 224 237 245 238 221 203 209 210 211 208 225
295 294 291 270 255 266 266 282 283 301 273 262 279 281 267 260 270 256 242 251 256 265 284 242 222 222 234 241 234 223 218 216 226 237 245 250 237 213 214 222 223 218 216
282 278 273 278 277 259 242 265 7 252 217 208 228 261 310 360 128 175 216 209 212 216 226 248 231 226 231 231 232 231 223 219 223 231 235 237 241 235 233 226 222 223 229
282 286 288 288 287 280 262 248 252 254 257 243 256 242 221 206 172 194 227 224 225 188 217 242 239 233 235 235 231 233 224 216 220 237 237 243 248 244 232 218 210 235 244
289 284 283 281 283 276 276 273 261 243 228 242 237 219 214 209 212 217 212 157 241 224 246 249 245 236 232 237 243 237 226 211 203 215 226 236 243 255 256 241 218 227 239
297 293 294 292 285 284 282 280 276 264 253 229 160 146 205 206 214 222 198 223 240 246 250 255 262 263 256 221 221 244 220 222 221 230 224 233 235 238 248 244 231 237 238
294 285 282 290 290 292 286 286 291 290 286 280 207 198 166 184 208 198 208 234 244 248 250 253 258 279 282 163 181 187 189 239 260 257 250 242 236 237 241 246 244 236 233
307 304 262 283 301 310 317 312 303 301 300 286 263 211 198 220 225 214 209 225 240 252 253 256 255 247 212 202 204 211 219 231 251 282 290 284 268 256 251 242 240 247 247
309 314 313 307 304 313 317 309 310 316 305 301 267 192 204 244 267 261 237 234 224 240 258 253 253 261 248 244 239 257 260 306 324 308 304 289 271 266 262 254 249 240 238
287 295 308 302 296 284 285 305 305 301 296 285 272 219 190 263 300 305 330 346 268 237 265 292 311 329 81 75 37 45 355 319 313 307 298 290 291 286 271 259 253 238 236
295 299 296 299 302 300 299 297 298 297 306 332 340 341 324 286 306 356 9 27 6 40 80 90 71 33 56 74 82 78 49 0 342 329 319 309 302 289 278 272 267 262 247
299 300 293 294 296 303 305 302 311 322 334 342 337 337 336 330 345 24 1 357 317 345 119 183 175 162 109 84 81 80 69 37 4 338 311 302 300 302 297 290 285 276 264
309 318 313 305 299 301 310 316 323 325 317 308 315 320 310 302 307 313 304 298 298 285 270 228 91 86 106 108 97 103 103 65 12 339 320 300 296 310 313 301 295 293 291